Regional Weather Roundup
Issued by NWS Cleveland, OH

Home | Current Version | Previous Version | Graphics & Text | Print | Product List | Glossary On
Versions: 1 2 3 4 5 6 7 8 9 10 11 12 13 14 15 16 17 18 19 20 21 22 23 24 25 26 27 28 29 30 31 32 33 34 35 36 37 38 39 40 41 42 43 44 45 46 47 48 49 50
000
ASUS41 KCLE 020610
RWRCLE
OHIO REGIONAL WEATHER ROUNDUP
NATIONAL WEATHER SERVICE CLEVELAND, OH
200 AM EDT TUE SEP 02 2014

NOTE: "FAIR" INDICATES FEW OR NO CLOUDS BELOW 12,000 FEET WITH NO
SIGNIFICANT WEATHER AND/OR OBSTRUCTIONS TO VISIBILITY.

OHZ001>008-015>018-024>027-034-035-043-044-020700-
   NORTHWEST OHIO

CITY           SKY/WX    TMP DP  RH WIND       PRES   REMARKS
DEFIANCE       FAIR      71  66  84 SW7       29.89S
FINDLAY        FAIR      73  69  87 SW10      29.91R
TOLEDO EXPRESS FAIR      73  66  78 SW8       29.88R
TOLEDO EXEC    FAIR      73  68  84 SW8       29.89R
LIMA           FAIR      73  69  87 SW7       29.93S
$$

OHZ009>014-019>023-028>033-038-089-020700-
   NORTHEAST OHIO

CITY           SKY/WX    TMP DP  RH WIND       PRES   REMARKS
CLE-HOPKINS    MOCLDY    75  69  81 SW10      29.92S
CLE-LAKEFRONT  FAIR      78  69  73 SW17      29.88S
CUY CO. ARPT   NOT AVBL
LORAIN-ELYRIA  CLOUDY    79  70  74 W9        29.92R
ASHTABULA      FAIR      73  70  90 S6        29.90S
AKRON-CANTON   MOCLDY    74  69  85 SW9       29.95R
WOOSTER        FAIR      73  69  87 SW9       29.95S
MANSFIELD      FAIR      74  70  87 SW14G21   29.96R
YOUNGSTOWN     FAIR      73  69  87 SW10      29.93S
$$

OHZ042-051>053-060>062-070>072-077>081-020700-
  SOUTHWEST OHIO

CITY           SKY/WX    TMP DP  RH WIND       PRES   REMARKS
CINC-COVINGTON FAIR      74  70  87 S7        29.97S
CINC-LUNKEN    FAIR      75  71  87 SW7       29.96S
HAMILTON       FAIR      73  71  93 CALM      29.96F
DAYTON         FAIR      73  70  90 SW6       29.96F
WRIGHT-PAT AFB PTCLDY    74  71  93 SW5       29.95F
DAYTON GENERAL FAIR      74  71  91 SW7       29.95F
WILMINGTON     FAIR      72  69  90 S8        29.96F
$$

OHZ036-037-039>041-045>050-054>059-063>069-073>076-082>088-020700-
  CENTRAL AND SOUTHEAST OHIO

CITY           SKY/WX    TMP DP  RH WIND       PRES   REMARKS
COLUMBUS       FAIR      76  70  82 SW6       29.96R
OSU AIRPORT    FAIR      73  69  87 SW6       29.96R
BOLTON FIELD   FAIR      71  70  98 S5        29.97S
RICKENBACK AFB MOCLDY    73  67  80 S7        29.96S
NEWARK         FAIR      73  69  87 CALM      29.97R
MARION         FAIR      74  70  87 SW8       29.95R
LANCASTER      FAIR      75  70  84 SW6       29.98R
ZANESVILLE     FAIR      72  68  87 SW6       29.98R
NEW PHILLY     FAIR      73  70  90 S6        29.96S
$$



USA.gov is the U.S. government's official web portal to all federal, state and local government web resources and services.